Kailua Kona, HI

4:43 PM HST on January 16, 2017 (GMT -1000)
Kona International At Keahole

Weather History for PHKO - June, 2013

Change the Weather History Date:

Sunday, June 9, 2013

  Actual Average Record
Temperature  
Mean Temperature 78 °F -  
Max Temperature 84 °F 81 °F 91 °F (1986)
Min Temperature 73 °F 72 °F 69 °F (1991)
Cooling Degree Days 14    
Growing Degree Days 28 (Base 50)    
Moisture  
Dew Point 66 °F    
Average Humidity 64    
Maximum Humidity 76    
Minimum Humidity 52    
Precipitation  
Precipitation 0.00 in - - ()
Sea Level Pressure  
Sea Level Pressure 30.02 in    
Wind  
Wind Speed 5 mph (South)    
Max Wind Speed 14 mph    
Max Gust Speed 18 mph    
Visibility 10 miles    
Events      
Averages and records for this station are not official NWS values.
T = Trace of Precipitation, MM = Missing Value Source: NWS Daily Summary

Daily Weather History Graph

Daily Weather History Graph

Search for Another Location

Airport or City:

Trip Planner

Search our weather history database for the weather conditions in past years. The results will help you decide how hot, cold, wet, or windy it might be!

Date:

Astronomy

Jun. 09, 2013 Rise Set
Actual Time 5:44 AM HST 7:02 PM HST
Civil Twilight 5:20 AM HST 7:27 PM HST
Nautical Twilight 4:51 AM HST 7:56 PM HST
Astronomical Twilight 4:21 AM HST 8:26 PM HST
Moon 6:43 AM HST (6/9) 8:06 PM HST (6/9)
Length of Visible Light 14h 06m
Length of Day
13h 18m
New Moon, 1% of the Moon is Illuminated
Jun 9
New Moon
Jun 16
First Quarter
Jun 23
Full
Jun 29
Last Quarter
Jul 7
New

Hourly Weather History & Observations

Time (HST) Temp. Heat Index Dew Point Humidity Pressure Visibility Wind Dir Wind Speed Gust Speed Precip Events Conditions
12:53 AM 77.0 °F - 64.9 °F 66% 30.02 in 10.0 mi Calm Calm - N/A   Scattered Clouds
1:53 AM 75.9 °F - 66.0 °F 71% 30.00 in 10.0 mi ESE 6.9 mph - N/A   Clear
2:53 AM 75.9 °F - 66.0 °F 71% 29.98 in 10.0 mi ESE 5.8 mph - N/A   Clear
3:53 AM 75.0 °F - 66.0 °F 73% 29.99 in 10.0 mi ESE 5.8 mph - N/A   Clear
4:38 AM 75.2 °F - 66.2 °F 73% 29.99 in 10.0 mi Calm Calm - N/A   Mostly Cloudy
4:53 AM 75.0 °F - 66.0 °F 73% 29.99 in 10.0 mi Calm Calm - N/A   Scattered Clouds
5:53 AM 73.9 °F - 66.0 °F 76% 30.01 in 10.0 mi Calm Calm - N/A   Clear
6:53 AM 75.9 °F - 66.0 °F 71% 30.03 in 10.0 mi ENE 4.6 mph - N/A   Clear
7:53 AM 80.1 °F 82.1 °F 66.0 °F 62% 30.04 in 10.0 mi SSE 3.5 mph - N/A   Clear
8:53 AM 82.0 °F 84.5 °F 66.9 °F 60% 30.04 in 10.0 mi SSW 11.5 mph - N/A   Clear
9:53 AM 82.9 °F 86.5 °F 69.1 °F 63% 30.05 in 10.0 mi South 13.8 mph - N/A   Clear
10:53 AM 84.0 °F 87.8 °F 69.1 °F 61% 30.04 in 10.0 mi South 13.8 mph - N/A   Clear
11:53 AM 84.0 °F 87.0 °F 68.0 °F 58% 30.04 in 10.0 mi SSW 13.8 mph 18.4 mph N/A   Clear
12:53 PM 84.9 °F 88.2 °F 68.0 °F 57% 30.03 in 10.0 mi SSW 11.5 mph - N/A   Partly Cloudy
1:53 PM 84.0 °F 86.5 °F 66.9 °F 56% 30.01 in 10.0 mi SSW 11.5 mph - N/A   Mostly Cloudy
2:53 PM 82.9 °F 86.5 °F 69.1 °F 63% 30.00 in 10.0 mi SW 10.4 mph - N/A   Overcast
3:53 PM 84.0 °F 86.5 °F 66.9 °F 56% 30.00 in 10.0 mi SW 11.5 mph - N/A   Overcast
4:53 PM 81.0 °F 83.8 °F 68.0 °F 65% 30.00 in 10.0 mi SW 9.2 mph - N/A   Overcast
5:53 PM 81.0 °F 83.8 °F 68.0 °F 65% 30.01 in 10.0 mi SW 6.9 mph - N/A   Overcast
6:53 PM 80.1 °F 82.3 °F 66.9 °F 64% 30.02 in 10.0 mi SSW 6.9 mph - N/A   Overcast
7:53 PM 80.1 °F 82.3 °F 66.9 °F 64% 30.04 in 10.0 mi SSW 3.5 mph - N/A   Overcast
8:53 PM 80.1 °F 82.7 °F 68.0 °F 67% 30.04 in 10.0 mi Calm Calm - N/A   Mostly Cloudy
9:53 PM 80.1 °F 81.1 °F 61.0 °F 52% 30.05 in 10.0 mi NE 10.4 mph - N/A   Overcast
10:53 PM 79.0 °F - 61.0 °F 54% 30.04 in 10.0 mi Calm Calm - N/A   Partly Cloudy
11:53 PM 77.0 °F - 63.0 °F 62% 30.03 in 10.0 mi ENE 5.8 mph - N/A   Clear